Tracking 30258 objects as of 19-Feb-2025
HD Live streaming from Space Station
objects crossing your sky now

OBJECT A

Track OBJECT A now!
10-day predictions


NORAD ID: 61179
Int'l Code: 2024-166A
Perigee: 218.3 km
Apogee: 224.2 km
Inclination: 96.8 °
Period: 88.8 minutes
Semi major axis: 6592 km
RCS: Unknown
Launch date: September 17, 2024
Source: Commonwealth of Independent States (former USSR) (CIS)
Launch site: PLESETSK MISSILE AND SPACE COMPLEX (PKMTR)

Note: This is SATELLITE DEBRIS
Your satellite tracking list
Your tracking list is empty




NASA's NSSDC Master Catalog

Two Line Element Set (TLE):
1 61179U 24166A   25049.70928594  .00625763  20521-5  28568-3 0  9993
2 61179  96.7553 311.1292 0004446  58.6024 359.1897 16.22000156 24587
Source of the keplerian elements: AFSPC